[[{"header":{"parameterUnit":"m.s-1","parameterCategory":2,"la1":30.2991,"la2":30.254,"lo1":-89.0895,"lo2":-89.0444,"dy":0.0017,"dx":0.0017,"nx":28,"ny":28,"refTime":"2024-06-18T21:00:00:Z","depth":"0","parameterNumber":2,"parameterNumberName":"U-component_of_CURRENTS"},"data":[0,0,0,0,0,0,0,0,0,0,0,0,0,0,0,0,0,0,0,0,0,0,0,0,0,0,0,0,0,0,0,0,0,0,0,0,0,0,0,0,0,0,0,0,0,0,0,0,0,0,0,0,0,0,0,0,0,0,0.0253,0.0254,0,0.0324,0.0324,0.0325,0.0371,0.0371,0.0371,0.0371,0.045,0.0452,0.0454,0,0,0,0,0,0,0,0,0,0,0,0,0,0.0218,0.0218,0.0253,0.0254,0.0254,0.0323,0.0324,0.0325,0.0371,0.0371,0.0371,0.0372,0.045,0.0452,0.0454,0,0,0,0,0,0,0,0,0,0,0,0,0,0.0256,0.0218,0.0253,0.0285,0.0288,0.0323,0.0324,0.0326,0.0371,0.0371,0.0371,0.0372,0.0449,0.0452,0.0455,0.0465,0,0,0.0463,0.0464,0,0,0,0,0,0,0,0,0.0253,0.0257,0.0279,0.0283,0.0287,0.0338,0.0341,0.0373,0.0371,0.034,0.0371,0.0372,0.0413,0.0419,0.0432,0.0469,0.0472,0.0463,0.0465,0.0466,0.0467,0,0,0,0,0,0,0,0.0251,0.0254,0.0281,0.028,0.0285,0.0317,0.0322,0.0348,0.0374,0.0343,0.0346,0.0353,0.0415,0.0429,0.0434,0.0474,0.0463,0.0466,0.0468,0.0469,0.056,0.0561,0,0,0,0,0,0,0.0237,0.0252,0.0279,0.0283,0.027,0.0317,0.0323,0.0322,0.0374,0.0382,0.0353,0.0355,0.0424,0.0431,0.0437,0.0482,0.0466,0.0469,0.0471,0.0559,0.056,0.0561,0,0,0,0,0,0,0.0236,0.0238,0.0276,0.0269,0.0276,0.0316,0.0316,0.0323,0.0342,0.0381,0.039,0.0365,0.0425,0.0433,0.0471,0.0484,0.047,0.0473,0.0558,0.0559,0.056,0.0552,0,0,0,0,0,0,0.0234,0.0237,0.0236,0.0268,0.0276,0.0298,0.0315,0.0324,0.0345,0.0349,0.0394,0.0402,0.0426,0.0466,0.0474,0.0488,0.0475,0.0557,0.0559,0.056,0.0552,0.0553,0.0554,0,0,0,0,0,0.0233,0.0228,0.0235,0.0239,0.0271,0.0298,0.0306,0.0337,0.0345,0.0355,0.039,0.0401,0.048,0.0469,0.0478,0.0493,0.0557,0.0558,0.056,0.0551,0.0553,0.0554,0,0,0,0,0,0,0.0221,0.0233,0.0242,0.0243,0.0269,0.0306,0.0318,0.0336,0.037,0.0375,0.041,0.042,0.0458,0.0476,0.0463,0.0523,0.052,0.0523,0.0511,0.0512,0.0514,0.0494,0.0478,0,0,0,0,0,0.0214,0.021,0.0235,0.024,0.0249,0.0282,0.0298,0.0318,0.035,0.0366,0.0399,0.0435,0.047,0.0491,0.0522,0.0553,0.0557,0.0569,0.057,0.0571,0.0562,0.0589,0.0592,0.0566,0.0566,0.0566,0,0,0.0213,0.0219,0.0218,0.0236,0.0258,0.0276,0.0293,0.0316,0.0336,0.0369,0.0407,0.0439,0.0479,0.0518,0.0536,0.0536,0.0579,0.0573,0.0573,0.0563,0.0591,0.0594,0.0596,0.0567,0.0567,0.0567,0,0,0.0213,0.0211,0.0212,0.0227,0.0253,0.0273,0.0277,0.0314,0.0335,0.0371,0.0404,0.0438,0.0493,0.0524,0.0547,0.0571,0.0582,0.0588,0.0582,0.061,0.0612,0.0613,0.0609,0.061,0.0591,0.0591,0.0591,0,0.0215,0.0218,0.022,0.0229,0.0246,0.0269,0.0287,0.0307,0.0354,0.0374,0.0381,0.0462,0.0493,0.0542,0.0554,0.0572,0.0582,0.0573,0.061,0.0612,0.0614,0.0609,0.0611,0.0591,0.0591,0.0591,0.0591,0,0.0219,0.0226,0.0229,0.0243,0.0257,0.0277,0.03,0.032,0.0344,0.037,0.0418,0.046,0.0508,0.0527,0.0549,0.0587,0.0586,0.0605,0.0602,0.0616,0.061,0.0612,0.0591,0.0591,0.0591,0.0591,0,0,0.0224,0.0232,0.0236,0.0252,0.0269,0.0289,0.0304,0.0338,0.0361,0.0394,0.043,0.0481,0.0499,0.0525,0.0559,0.0582,0.0601,0.06,0.0602,0.0586,0.0644,0.0591,0.0588,0.0635,0.0636,0.0636,0.0629,0,0.0238,0.026,0.0255,0.0286,0.0304,0.0315,0.0331,0.0357,0.0384,0.042,0.045,0.0501,0.0501,0.0537,0.0552,0.0598,0.0608,0.0599,0.064,0.064,0.0586,0.059,0.0423,0.0399,0.0631,0.0631,0.0631,0,0.025,0.0266,0.0293,0.0318,0.0326,0.0341,0.0376,0.0393,0.0425,0.0449,0.0479,0.0509,0.0543,0.055,0.0589,0.0588,0.0608,0.063,0.0631,0.0584,0.0592,0.0427,0.0394,0.0285,0.0634,0.0634,0.0634,0,0.0267,0.0295,0.0321,0.033,0.0354,0.0368,0.0381,0.0406,0.0414,0.0473,0.0494,0.0531,0.0568,0.0586,0.061,0.0613,0.0648,0.0661,0.0622,0.0618,0.0482,0.0465,0.0338,0.0685,0.0685,0.0685,0.0685,0,0.0283,0.0304,0.0335,0.0349,0.0377,0.0388,0.041,0.0431,0.0447,0.044,0.0511,0.0523,0.0586,0.0607,0.0613,0.0607,0.0645,0.0609,0.0615,0.0473,0.0456,0.0362,0.0338,0.0684,0.0684,0.0684,0.0684,0,0.0284,0.0304,0.0335,0.0372,0.0381,0.0399,0.0402,0.0406,0.0444,0.0437,0.0455,0.0527,0.0557,0.0593,0.0638,0.0618,0.0542,0.0616,0.0428,0.0412,0.026,0.0242,0.0217,0.0149,0.0555,0.0554,0.0553,0,0.028,0.0302,0.0346,0.0351,0.0363,0.0384,0.0377,0.0399,0.0383,0.0412,0.0397,0.0467,0.0452,0.0505,0.0506,0.0497,0.0482,0.0368,0.0343,0.0212,0.0199,0.0254,0.0202,0.0153,0.0148,0.0145,0.0142,0,0.0276,0.0297,0.0318,0.0335,0.0337,0.0334,0.0323,0.0306,0.03,0.028,0.0242,0.024,0.0299,0.0231,0.0286,0.0273,0.0235,0.0297,0.0209,-0.0097,-0.0093,-0.0145,0.0188,0.0111,0.0114,0.0116,0.0118,0.0119,0.0264,0.0276,0.0302,0.031,0.0305,0.027,0.0235,0.0203,0.0144,0.007,0.0058,-0.0021,-0.0079,-0.0033,-0.001,-0.01,0.0028,-0.0178,-0.018,-0.0102,-0.0203,0.005,-0.0038,-0.0036,-0.0034,-0.0032,-0.0031,0,0.0243,0.0257,0.0267,0.0268,0.0237,0.0239,0.018,0.0113,0.0007,-0.0084,-0.0185,-0.0431,-0.0515,-0.0496,-0.0562,-0.06,-0.0567,-0.0624,-0.0632,-0.0653,-0.0424,-0.0484,-0.0732,-0.0732,-0.0732,-0.0732,-0.0732,-0.0732,0.0229,0.0233,0.024,0.0198,0.0179,0.0086,0.0028,-0.0068,-0.0159,-0.036,-0.0535,-0.0642,-0.0733,-0.0934,-0.1026,-0.1014,-0.1019,-0.1009,-0.0946,-0.0868,-0.0827,-0.0789,-0.0853,-0.1175,-0.1175,-0.1235,-0.1236,-0.1237]},{"header":{"parameterUnit":"m.s-1","parameterCategory":2,"la1":30.2991,"la2":30.254,"lo1":-89.0895,"lo2":-89.0444,"dy":0.0017,"dx":0.0017,"nx":28,"ny":28,"refTime":"2024-06-18T21:00:00:Z","depth":"0","parameterNumber":3,"parameterNumberName":"V-component_of_CURRENTS"},"data":[0,0,0,0,0,0,0,0,0,0,0,0,0,0,0,0,0,0,0,0,0,0,0,0,0,0,0,0,0,0,0,0,0,0,0,0,0,0,0,0,0,0,0,0,0,0,0,0,0,0,0,0,0,0,0,0,0,0,-0.0346,-0.0346,0,-0.0401,-0.0402,-0.0403,-0.0441,-0.0442,-0.0442,-0.0442,-0.0499,-0.05,-0.0501,0,0,0,0,0,0,0,0,0,0,0,0,0,-0.03,-0.03,-0.0346,-0.0346,-0.0347,-0.0401,-0.0402,-0.0403,-0.0441,-0.0442,-0.0442,-0.0442,-0.0498,-0.05,-0.0501,0,0,0,0,0,0,0,0,0,0,0,0,0,-0.0335,-0.03,-0.0346,-0.0372,-0.0374,-0.0401,-0.0402,-0.0403,-0.0441,-0.0442,-0.0442,-0.0442,-0.0498,-0.05,-0.0502,-0.0509,0,0,-0.0508,-0.0509,0,0,0,0,0,0,0,0,-0.0333,-0.0337,-0.0367,-0.037,-0.0373,-0.0414,-0.0407,-0.0438,-0.0441,-0.0417,-0.0442,-0.0442,-0.0469,-0.0474,-0.0485,-0.0512,-0.0514,-0.0508,-0.0509,-0.051,-0.0511,0,0,0,0,0,0,0,-0.033,-0.0335,-0.0369,-0.0368,-0.0371,-0.039,-0.0395,-0.0413,-0.0442,-0.0419,-0.0422,-0.0426,-0.0471,-0.0483,-0.0487,-0.0515,-0.0508,-0.051,-0.0511,-0.0512,-0.0563,-0.0563,0,0,0,0,0,0,-0.0319,-0.0332,-0.0367,-0.0371,-0.0352,-0.039,-0.0396,-0.0401,-0.0442,-0.0448,-0.0426,-0.0428,-0.048,-0.0485,-0.0489,-0.0505,-0.051,-0.0512,-0.0513,-0.0563,-0.0563,-0.0563,0,0,0,0,0,0,-0.0318,-0.0322,-0.0365,-0.0352,-0.0358,-0.039,-0.0396,-0.0402,-0.0415,-0.0447,-0.0453,-0.0431,-0.048,-0.0486,-0.0505,-0.0507,-0.0513,-0.0515,-0.0563,-0.0563,-0.0563,-0.0534,0,0,0,0,0,0,-0.0317,-0.0321,-0.0321,-0.0351,-0.0359,-0.0375,-0.0396,-0.0403,-0.0416,-0.0419,-0.0454,-0.0459,-0.0481,-0.0502,-0.0507,-0.051,-0.0516,-0.0562,-0.0563,-0.0563,-0.0535,-0.0533,-0.0532,0,0,0,0,0,-0.0315,-0.0313,-0.0321,-0.0325,-0.0358,-0.0374,-0.038,-0.0404,-0.0416,-0.0417,-0.0443,-0.0458,-0.0507,-0.0503,-0.051,-0.0513,-0.0562,-0.0563,-0.0563,-0.0535,-0.0533,-0.0532,0,0,0,0,0,0,-0.0301,-0.0318,-0.0327,-0.0333,-0.0349,-0.038,-0.0384,-0.0401,-0.0423,-0.0427,-0.0458,-0.0466,-0.0484,-0.0502,-0.0496,-0.0529,-0.0538,-0.0539,-0.0515,-0.0513,-0.0512,-0.0494,-0.0518,0,0,0,0,0,-0.0295,-0.0295,-0.0317,-0.0322,-0.0326,-0.0354,-0.0364,-0.038,-0.0403,-0.0414,-0.0436,-0.0464,-0.0491,-0.0503,-0.0525,-0.054,-0.0547,-0.0548,-0.0546,-0.0545,-0.0535,-0.0544,-0.0542,-0.0564,-0.0564,-0.0564,0,0,-0.0294,-0.03,-0.0303,-0.0318,-0.0332,-0.0335,-0.0361,-0.0371,-0.0378,-0.0415,-0.0428,-0.0457,-0.0493,-0.0513,-0.0523,-0.0527,-0.0543,-0.0545,-0.0544,-0.0534,-0.0544,-0.0541,-0.0539,-0.0564,-0.0564,-0.0564,0,0,-0.0285,-0.0292,-0.0289,-0.0293,-0.0306,-0.0321,-0.0321,-0.0346,-0.0361,-0.0377,-0.0409,-0.0436,-0.0469,-0.0498,-0.0518,-0.052,-0.0534,-0.0531,-0.0509,-0.0518,-0.0516,-0.0514,-0.0522,-0.0521,-0.0531,-0.053,-0.053,0,-0.0286,-0.028,-0.0291,-0.0284,-0.0282,-0.031,-0.0303,-0.0324,-0.0353,-0.036,-0.0374,-0.0429,-0.0462,-0.0493,-0.0499,-0.0516,-0.0521,-0.0513,-0.0515,-0.0513,-0.0512,-0.052,-0.0519,-0.0529,-0.0529,-0.0529,-0.053,0,-0.0273,-0.0266,-0.0261,-0.0258,-0.0257,-0.0256,-0.0275,-0.0282,-0.0301,-0.0322,-0.0349,-0.0396,-0.0425,-0.0449,-0.0478,-0.0491,-0.0497,-0.051,-0.0516,-0.0508,-0.0517,-0.0517,-0.0527,-0.0528,-0.0528,-0.0528,0,0,-0.0286,-0.0259,-0.0258,-0.0238,-0.024,-0.0235,-0.0239,-0.025,-0.0245,-0.0287,-0.0287,-0.0353,-0.0375,-0.0398,-0.044,-0.0459,-0.0465,-0.0478,-0.0479,-0.0478,-0.0479,-0.0496,-0.0498,-0.0475,-0.0475,-0.0474,-0.049,0,-0.0276,-0.0249,-0.0237,-0.0207,-0.0193,-0.0196,-0.0187,-0.0198,-0.0218,-0.0225,-0.0284,-0.0301,-0.0358,-0.0367,-0.0398,-0.0448,-0.0462,-0.0459,-0.0493,-0.0494,-0.0504,-0.0497,-0.0474,-0.0487,-0.049,-0.049,-0.049,0,-0.027,-0.0248,-0.0217,-0.0163,-0.0155,-0.014,-0.0118,-0.0112,-0.0134,-0.0143,-0.0179,-0.0221,-0.0271,-0.0308,-0.0385,-0.0378,-0.042,-0.0459,-0.0461,-0.0483,-0.051,-0.0496,-0.0487,-0.0542,-0.049,-0.049,-0.049,0,-0.027,-0.0227,-0.0197,-0.0184,-0.014,-0.012,-0.0095,-0.0094,-0.0063,-0.0092,-0.0069,-0.015,-0.0172,-0.0243,-0.0344,-0.0355,-0.0417,-0.0441,-0.0493,-0.0495,-0.0486,-0.0487,-0.0525,-0.0471,-0.0471,-0.0471,-0.0471,0,-0.0262,-0.0232,-0.0193,-0.0176,-0.0125,-0.0094,-0.0044,-0.0033,0.0006,0.0061,-0.002,0.0003,-0.0153,-0.0216,-0.0309,-0.0405,-0.039,-0.0482,-0.0498,-0.0476,-0.0477,-0.0533,-0.0571,-0.0472,-0.0472,-0.0472,-0.0472,0,-0.0264,-0.0243,-0.02,-0.0147,-0.0126,-0.0088,0.0011,0.0049,0.0091,0.0162,0.0167,0.0117,0.0026,-0.0128,-0.0255,-0.0348,-0.0484,-0.0475,-0.0444,-0.0456,-0.0564,-0.0601,-0.0642,-0.073,-0.0532,-0.0532,-0.0533,0,-0.0259,-0.0244,-0.0187,-0.0156,-0.013,-0.0064,-0.0014,0.0065,0.0126,0.0246,0.0284,0.0226,0.0189,-0.0024,-0.0226,-0.0404,-0.0487,-0.0484,-0.0506,-0.0561,-0.0614,-0.0626,-0.0699,-0.0482,-0.0482,-0.0482,-0.0482,0,-0.0248,-0.0237,-0.0203,-0.015,-0.0098,-0.0025,0.0063,0.0141,0.0259,0.0357,0.0477,0.0475,0.0268,0.0066,-0.0215,-0.0329,-0.0532,-0.0488,-0.0547,-0.0579,-0.059,-0.0685,-0.0484,-0.0482,-0.0482,-0.0482,-0.0482,-0.0482,-0.024,-0.022,-0.0185,-0.0133,-0.0075,0.0009,0.0085,0.0197,0.0343,0.0504,0.0584,0.0612,0.0353,-0.0039,-0.0212,-0.0513,-0.0533,-0.0575,-0.0616,-0.0623,-0.0708,-0.051,-0.0528,-0.0529,-0.0529,-0.0529,-0.0529,0,-0.0224,-0.0204,-0.0161,-0.0099,-0.0044,-0.0007,0.0134,0.0217,0.0382,0.051,0.0649,0.061,0.0302,-0.0029,-0.0433,-0.0597,-0.0687,-0.0687,-0.0693,-0.0769,-0.0582,-0.0582,-0.0609,-0.0609,-0.0609,-0.0608,-0.0608,-0.0608,-0.0211,-0.018,-0.0165,-0.0091,-0.0042,0.0059,0.0143,0.0263,0.0365,0.0498,0.0554,0.0582,0.0324,-0.0163,-0.0586,-0.0684,-0.0841,-0.0821,-0.095,-0.0795,-0.0788,-0.078,-0.0788,-0.0858,-0.0858,-0.1115,-0.1117,-0.1119]}],[{"header":{"parameterUnit":"m.s-1","parameterCategory":2,"la1":30.2991,"la2":30.254,"lo1":-89.0895,"lo2":-89.0444,"dy":0.0017,"dx":0.0017,"nx":28,"ny":28,"refTime":"2024-06-18T21:00:00:Z","depth":"2","parameterNumber":2,"parameterNumberName":"U-component_of_CURRENTS"},"data":[0,0,0,0,0,0,0,0,0,0,0,0,0,0,0,0,0,0,0,0,0,0,0,0,0,0,0,0,0,0,0,0,0,0,0,0,0,0,0,0,0,0,0,0,0,0,0,0,0,0,0,0,0,0,0,0,0,0,0.0296,0.0297,0,0.0368,0.0369,0.037,0.0415,0.0416,0.0416,0.0416,0.0495,0.0497,0.0499,0,0,0,0,0,0,0,0,0,0,0,0,0,0.0261,0.0261,0.0296,0.0297,0.0298,0.0368,0.0369,0.037,0.0415,0.0416,0.0416,0.0416,0.0495,0.0497,0.0499,0,0,0,0,0,0,0,0,0,0,0,0,0,0.0299,0.0261,0.0296,0.0329,0.0332,0.0368,0.0369,0.037,0.0415,0.0416,0.0416,0.0416,0.0494,0.0497,0.0499,0.0511,0,0,0.0508,0.051,0,0,0,0,0,0,0,0,0.0297,0.0301,0.0323,0.0326,0.033,0.0382,0.0386,0.0417,0.0415,0.0384,0.0416,0.0416,0.0458,0.0463,0.0477,0.0515,0.0518,0.0509,0.051,0.0511,0.0512,0,0,0,0,0,0,0,0.0294,0.0298,0.0325,0.0324,0.0328,0.0361,0.0366,0.0392,0.0419,0.0387,0.039,0.0397,0.046,0.0474,0.0479,0.0519,0.0508,0.0511,0.0513,0.0514,0.0605,0.0606,0,0,0,0,0,0,0.0281,0.0295,0.0323,0.0327,0.0314,0.0361,0.0367,0.0366,0.0419,0.0427,0.0397,0.0399,0.0469,0.0476,0.0482,0.0526,0.0511,0.0514,0.0516,0.0604,0.0605,0.0606,0,0,0,0,0,0,0.0279,0.0282,0.032,0.0313,0.032,0.0361,0.036,0.0367,0.0386,0.0426,0.0434,0.0409,0.047,0.0478,0.0516,0.0529,0.0515,0.0518,0.0604,0.0605,0.0606,0.0597,0,0,0,0,0,0,0.0278,0.0281,0.0279,0.0312,0.032,0.0342,0.036,0.0368,0.0389,0.0393,0.0439,0.0446,0.0471,0.0511,0.0518,0.0532,0.052,0.0603,0.0604,0.0605,0.0596,0.0597,0.0598,0,0,0,0,0,0.0276,0.0272,0.0278,0.0282,0.0315,0.0342,0.035,0.0381,0.039,0.0399,0.0434,0.0445,0.0525,0.0514,0.0523,0.0537,0.0602,0.0604,0.0605,0.0595,0.0597,0.0598,0,0,0,0,0,0,0.0265,0.0277,0.0285,0.0287,0.0312,0.035,0.0362,0.038,0.0414,0.0419,0.0454,0.0465,0.0502,0.0521,0.0508,0.0568,0.0565,0.0568,0.0555,0.0557,0.0558,0.0538,0.0523,0,0,0,0,0,0.0257,0.0253,0.0278,0.0283,0.0292,0.0326,0.0341,0.0361,0.0394,0.041,0.0442,0.0479,0.0514,0.0535,0.0566,0.0598,0.0602,0.0613,0.0614,0.0615,0.0606,0.0635,0.0637,0.0611,0.0611,0.0611,0,0,0.0256,0.0262,0.0262,0.0279,0.0301,0.0319,0.0336,0.0359,0.0379,0.0412,0.045,0.0482,0.0523,0.0562,0.0581,0.058,0.0623,0.0617,0.0618,0.0608,0.0637,0.0639,0.0641,0.0612,0.0612,0.0612,0,0,0.0256,0.0254,0.0255,0.027,0.0296,0.0316,0.032,0.0357,0.0377,0.0413,0.0446,0.0481,0.0536,0.0568,0.0591,0.0614,0.0626,0.0631,0.0625,0.0653,0.0655,0.0657,0.0652,0.0653,0.0634,0.0634,0.0634,0,0.0258,0.0262,0.0263,0.0272,0.0289,0.0311,0.0329,0.0349,0.0397,0.0416,0.0423,0.0505,0.0535,0.0585,0.0597,0.0615,0.0625,0.0616,0.0653,0.0655,0.0658,0.0652,0.0654,0.0634,0.0634,0.0634,0.0634,0,0.0263,0.0269,0.0273,0.0287,0.03,0.0321,0.0343,0.0362,0.0385,0.0412,0.046,0.0501,0.0549,0.0569,0.0591,0.0629,0.0628,0.0649,0.0646,0.0659,0.0653,0.0654,0.0634,0.0634,0.0634,0.0634,0,0,0.0268,0.0276,0.028,0.0296,0.0312,0.0332,0.0346,0.038,0.0403,0.0435,0.0471,0.0522,0.054,0.0566,0.0601,0.0624,0.0643,0.0643,0.0645,0.0628,0.0687,0.0634,0.0631,0.0679,0.0679,0.068,0.0671,0,0.0283,0.0304,0.03,0.033,0.0349,0.0358,0.0374,0.0399,0.0425,0.0461,0.0491,0.0541,0.0542,0.0577,0.0594,0.064,0.0651,0.0642,0.0684,0.0684,0.0628,0.0632,0.0804,0.0807,0.0673,0.0673,0.0674,0,0.0295,0.0311,0.0338,0.0363,0.0371,0.0385,0.0419,0.0435,0.0467,0.049,0.0519,0.0549,0.0584,0.0591,0.0631,0.0629,0.065,0.0673,0.0674,0.0626,0.0635,0.0776,0.0815,0.0677,0.0676,0.0676,0.0676,0,0.0311,0.034,0.0366,0.0375,0.0399,0.0412,0.0425,0.0448,0.0456,0.0514,0.0534,0.0571,0.0608,0.0626,0.0651,0.0655,0.069,0.0704,0.0665,0.066,0.0813,0.082,0.0729,0.0729,0.0729,0.0729,0.0729,0,0.0327,0.0349,0.038,0.0393,0.0422,0.0432,0.0453,0.0473,0.0488,0.0481,0.055,0.0562,0.0626,0.0647,0.0654,0.0648,0.0687,0.0651,0.0657,0.0811,0.0818,0.0715,0.0713,0.0728,0.0729,0.0729,0.0729,0,0.0328,0.0348,0.038,0.0416,0.0425,0.0443,0.0445,0.0449,0.0486,0.0477,0.0496,0.0567,0.0596,0.0632,0.0679,0.0658,0.0663,0.0657,0.0806,0.0828,0.0608,0.0607,0.0599,0.0597,0.0596,0.0594,0.0593,0,0.0324,0.0345,0.039,0.0394,0.0406,0.0427,0.042,0.0442,0.0425,0.0453,0.0438,0.0506,0.0534,0.0586,0.0758,0.08,0.0624,0.0759,0.0782,0.0589,0.0597,0.0597,0.0598,0.0989,0.0991,0.0993,0.0995,0,0.0319,0.0339,0.0361,0.0377,0.038,0.0376,0.0366,0.0349,0.0342,0.0365,0.0326,0.0364,0.058,0.0761,0.0876,0.088,0.0765,0.0786,0.0606,0.0962,0.0948,0.0957,0.0947,0.1011,0.1009,0.1008,0.1007,0.1006,0.0307,0.0318,0.0344,0.0352,0.0347,0.0313,0.0277,0.0406,0.0409,0.0559,0.0386,0.0574,0.0674,0.1062,0.0997,0.0988,0.1025,0.0856,0.0857,0.0854,0.0867,0.0847,0.0893,0.0891,0.0889,0.0888,0.0886,0,0.0325,0.0299,0.0309,0.031,0.0338,0.028,0.0222,0.0369,0.0523,0.0703,0.0815,0.0865,0.1077,0.105,0.1239,0.1185,0.1254,0.0907,0.1028,0.1021,0.1011,0.1033,0.1103,0.1101,0.1099,0.1097,0,0,0.0321,0.0344,0.0352,0.0348,0.0292,0.0365,0.0311,0.0604,0.0818,0.111,0.1224,0.1456,0.127,0.1307,0.1262,0.1185,0.1076,0.1134,0.1016,0.1174,0.1162,0.1087,0.1124,0,0,0,0,0]},{"header":{"parameterUnit":"m.s-1","parameterCategory":2,"la1":30.2991,"la2":30.254,"lo1":-89.0895,"lo2":-89.0444,"dy":0.0017,"dx":0.0017,"nx":28,"ny":28,"refTime":"2024-06-18T21:00:00:Z","depth":"2","parameterNumber":3,"parameterNumberName":"V-component_of_CURRENTS"},"data":[0,0,0,0,0,0,0,0,0,0,0,0,0,0,0,0,0,0,0,0,0,0,0,0,0,0,0,0,0,0,0,0,0,0,0,0,0,0,0,0,0,0,0,0,0,0,0,0,0,0,0,0,0,0,0,0,0,0,-0.0343,-0.0343,0,-0.0398,-0.0399,-0.04,-0.0438,-0.0439,-0.0439,-0.0439,-0.0496,-0.0497,-0.0498,0,0,0,0,0,0,0,0,0,0,0,0,0,-0.0297,-0.0297,-0.0343,-0.0343,-0.0344,-0.0398,-0.0399,-0.04,-0.0438,-0.0439,-0.0439,-0.0439,-0.0495,-0.0497,-0.0499,0,0,0,0,0,0,0,0,0,0,0,0,0,-0.0332,-0.0298,-0.0343,-0.0369,-0.0371,-0.0398,-0.0399,-0.04,-0.0438,-0.0439,-0.0439,-0.0439,-0.0495,-0.0497,-0.0499,-0.0506,0,0,-0.0505,-0.0506,0,0,0,0,0,0,0,0,-0.033,-0.0334,-0.0364,-0.0367,-0.037,-0.0411,-0.0404,-0.0435,-0.0438,-0.0414,-0.0439,-0.0439,-0.0466,-0.0471,-0.0482,-0.0509,-0.0511,-0.0505,-0.0506,-0.0507,-0.0508,0,0,0,0,0,0,0,-0.0327,-0.0332,-0.0366,-0.0365,-0.0368,-0.0387,-0.0392,-0.041,-0.0439,-0.0416,-0.0419,-0.0423,-0.0468,-0.048,-0.0484,-0.0512,-0.0505,-0.0507,-0.0508,-0.0509,-0.056,-0.056,0,0,0,0,0,0,-0.0316,-0.0329,-0.0364,-0.0368,-0.0349,-0.0387,-0.0393,-0.0398,-0.0439,-0.0445,-0.0423,-0.0425,-0.0477,-0.0482,-0.0486,-0.0502,-0.0507,-0.0509,-0.051,-0.056,-0.056,-0.056,0,0,0,0,0,0,-0.0315,-0.0319,-0.0362,-0.0349,-0.0355,-0.0387,-0.0393,-0.0399,-0.0412,-0.0444,-0.045,-0.0428,-0.0477,-0.0483,-0.0502,-0.0504,-0.051,-0.0512,-0.056,-0.056,-0.056,-0.053,0,0,0,0,0,0,-0.0314,-0.0318,-0.0319,-0.0348,-0.0356,-0.0372,-0.0393,-0.04,-0.0413,-0.0416,-0.0451,-0.0456,-0.0478,-0.0499,-0.0504,-0.0507,-0.0514,-0.0559,-0.056,-0.056,-0.0531,-0.053,-0.0528,0,0,0,0,0,-0.0312,-0.031,-0.0318,-0.0323,-0.0355,-0.0371,-0.0377,-0.0401,-0.0413,-0.0414,-0.044,-0.0455,-0.0504,-0.05,-0.0507,-0.051,-0.0559,-0.056,-0.056,-0.0532,-0.053,-0.0528,0,0,0,0,0,0,-0.0298,-0.0315,-0.0324,-0.033,-0.0346,-0.0377,-0.0381,-0.0398,-0.042,-0.0424,-0.0455,-0.0463,-0.0481,-0.0499,-0.0494,-0.0526,-0.0535,-0.0536,-0.0512,-0.051,-0.0508,-0.049,-0.0515,0,0,0,0,0,-0.0292,-0.0292,-0.0314,-0.0319,-0.0323,-0.0351,-0.0361,-0.0377,-0.04,-0.0411,-0.0433,-0.0461,-0.0488,-0.05,-0.0522,-0.0537,-0.0544,-0.0544,-0.0543,-0.0541,-0.0531,-0.054,-0.0538,-0.0561,-0.0561,-0.0561,0,0,-0.0291,-0.0297,-0.03,-0.0315,-0.0329,-0.0332,-0.0358,-0.0368,-0.0375,-0.0412,-0.0425,-0.0454,-0.049,-0.051,-0.052,-0.0524,-0.054,-0.0542,-0.054,-0.0531,-0.054,-0.0538,-0.0536,-0.0561,-0.0561,-0.0561,0,0,-0.0282,-0.029,-0.0286,-0.029,-0.0303,-0.0318,-0.0317,-0.0343,-0.0357,-0.0373,-0.0406,-0.0432,-0.0466,-0.0495,-0.0514,-0.0517,-0.0531,-0.0527,-0.0505,-0.0514,-0.0512,-0.051,-0.0518,-0.0517,-0.0527,-0.0527,-0.0527,0,-0.0283,-0.0277,-0.0288,-0.0281,-0.0279,-0.0307,-0.03,-0.032,-0.0349,-0.0356,-0.037,-0.0426,-0.0459,-0.0489,-0.0495,-0.0512,-0.0517,-0.0509,-0.0511,-0.0509,-0.0508,-0.0516,-0.0515,-0.0525,-0.0525,-0.0526,-0.0526,0,-0.027,-0.0262,-0.0258,-0.0255,-0.0253,-0.0252,-0.027,-0.0278,-0.0297,-0.0318,-0.0345,-0.0392,-0.0421,-0.0445,-0.0474,-0.0487,-0.0493,-0.0506,-0.0511,-0.0503,-0.0513,-0.0513,-0.0523,-0.0524,-0.0524,-0.0525,0,0,-0.0283,-0.0255,-0.0254,-0.0234,-0.0236,-0.0231,-0.0235,-0.0246,-0.0241,-0.0282,-0.0283,-0.0348,-0.037,-0.0394,-0.0436,-0.0454,-0.046,-0.0473,-0.0475,-0.0474,-0.0474,-0.0491,-0.0493,-0.047,-0.0469,-0.0469,-0.0485,0,-0.0272,-0.0245,-0.0233,-0.0202,-0.0188,-0.0191,-0.0182,-0.0193,-0.0213,-0.022,-0.0279,-0.0296,-0.0353,-0.0362,-0.0393,-0.0443,-0.0457,-0.0454,-0.0488,-0.0489,-0.05,-0.0493,-0.0405,-0.0413,-0.0485,-0.0485,-0.0485,0,-0.0266,-0.0243,-0.0213,-0.0158,-0.015,-0.0135,-0.0112,-0.0106,-0.0128,-0.0138,-0.0174,-0.0216,-0.0266,-0.0303,-0.0379,-0.0373,-0.0414,-0.0454,-0.0455,-0.0479,-0.0506,-0.0434,-0.041,-0.0485,-0.0485,-0.0485,-0.0485,0,-0.0266,-0.0223,-0.0192,-0.0179,-0.0135,-0.0115,-0.009,-0.0089,-0.0059,-0.0087,-0.0064,-0.0146,-0.0167,-0.0238,-0.0339,-0.035,-0.0412,-0.0436,-0.0489,-0.049,-0.0426,-0.0423,-0.0466,-0.0466,-0.0466,-0.0466,-0.0466,0,-0.0257,-0.0228,-0.0188,-0.0171,-0.012,-0.0089,-0.0039,-0.0028,0.0011,0.0065,-0.0016,0.0007,-0.0148,-0.0211,-0.0305,-0.04,-0.0385,-0.0478,-0.0493,-0.0416,-0.0411,-0.0482,-0.0484,-0.0467,-0.0466,-0.0466,-0.0466,0,-0.026,-0.0238,-0.0195,-0.0142,-0.0121,-0.0083,0.0015,0.0054,0.0095,0.0165,0.0171,0.012,0.003,-0.0124,-0.0251,-0.0344,-0.0439,-0.047,-0.0376,-0.0381,-0.0518,-0.0518,-0.0527,-0.0527,-0.0528,-0.0528,-0.0529,0,-0.0255,-0.024,-0.0182,-0.0152,-0.0126,-0.0059,-0.001,0.0069,0.013,0.0249,0.0287,0.0229,0.0192,-0.0021,-0.02,-0.0372,-0.0429,-0.0413,-0.0427,-0.0509,-0.0523,-0.0522,-0.0522,-0.0327,-0.0326,-0.0325,-0.0324,0,-0.0244,-0.0233,-0.0199,-0.0147,-0.0094,-0.0022,0.0066,0.0143,0.0261,0.0346,0.0466,0.0465,0.0292,0.0129,-0.0144,-0.0251,-0.039,-0.0399,-0.0489,-0.0338,-0.0326,-0.0339,-0.0343,-0.0315,-0.0316,-0.0317,-0.0317,-0.0318,-0.0236,-0.0217,-0.0181,-0.0129,-0.0072,0.0012,0.0087,0.0154,0.028,0.0384,0.0507,0.0492,0.0407,0.0027,-0.0103,-0.0296,-0.032,-0.0383,-0.0383,-0.0386,-0.0372,-0.0363,-0.0356,-0.0357,-0.0358,-0.0359,-0.036,0,-0.0218,-0.0201,-0.0158,-0.0096,-0.0045,-0.0005,0.0136,0.0164,0.0254,0.0327,0.0409,0.0398,0.0271,0.0111,-0.0112,-0.023,-0.0232,-0.0306,-0.0248,-0.0255,-0.0262,-0.0241,-0.0191,-0.0191,-0.0192,-0.0192,0,0,-0.0204,-0.0172,-0.0157,-0.009,-0.0045,0.0016,0.0098,0.0108,0.0146,0.0185,0.0219,0.0269,0.0243,0.0111,0.0008,-0.0107,-0.0192,-0.0152,-0.0267,-0.0192,-0.0198,-0.0272,-0.0243,0,0,0,0,0]}],[{"header":{"parameterUnit":"m.s-1","parameterCategory":2,"la1":30.2991,"la2":30.254,"lo1":-89.0895,"lo2":-89.0444,"dy":0.0017,"dx":0.0017,"nx":28,"ny":28,"refTime":"2024-06-18T21:00:00:Z","depth":"4","parameterNumber":2,"parameterNumberName":"U-component_of_CURRENTS"},"data":[0,0,0,0,0,0,0,0,0,0,0,0,0,0,0,0,0,0,0,0,0,0,0,0,0,0,0,0,0,0,0,0,0,0,0,0,0,0,0,0,0,0,0,0,0,0,0,0,0,0,0,0,0,0,0,0,0,0,0.1272,0.1273,0,0.1331,0.1332,0.1332,0.1379,0.138,0.1381,0.1381,0.1453,0.1454,0.1456,0,0,0,0,0,0,0,0,0,0,0,0,0,0.1216,0.1217,0.1272,0.1273,0.1273,0.1331,0.1332,0.1333,0.1379,0.138,0.1381,0.1381,0.1452,0.1454,0.1456,0,0,0,0,0,0,0,0,0,0,0,0,0,0.1253,0.1217,0.1272,0.1305,0.1308,0.1331,0.1332,0.1333,0.1379,0.138,0.1381,0.1382,0.1452,0.1454,0.1456,0.1452,0,0,0.1462,0.1463,0,0,0,0,0,0,0,0,0.1251,0.1255,0.1299,0.1302,0.1307,0.135,0.1339,0.1374,0.1379,0.1351,0.1381,0.1382,0.142,0.1424,0.1432,0.1455,0.1458,0.1462,0.1464,0.1465,0.1465,0,0,0,0,0,0,0,0.1248,0.1253,0.1294,0.13,0.1304,0.1323,0.1328,0.1345,0.1379,0.1354,0.1357,0.1366,0.1422,0.143,0.1434,0.1459,0.1462,0.1464,0.1465,0.1466,0.1576,0.1577,0,0,0,0,0,0,0.1242,0.125,0.1292,0.1296,0.1282,0.1323,0.1329,0.1334,0.1379,0.1387,0.1365,0.1368,0.1426,0.1432,0.1437,0.152,0.1465,0.1466,0.1468,0.1574,0.1576,0.1578,0,0,0,0,0,0,0.124,0.1244,0.129,0.1276,0.1283,0.1323,0.1328,0.1335,0.1371,0.1387,0.1396,0.1396,0.1427,0.1434,0.1483,0.152,0.1467,0.1469,0.1572,0.1575,0.1577,0.1631,0,0,0,0,0,0,0.1238,0.1243,0.1258,0.1275,0.1284,0.1319,0.1327,0.1335,0.1373,0.1378,0.1417,0.1423,0.1428,0.148,0.1486,0.1521,0.1471,0.157,0.1573,0.1576,0.1627,0.1635,0.1642,0,0,0,0,0,0.1236,0.1246,0.1258,0.1264,0.1298,0.132,0.1327,0.1357,0.1374,0.1392,0.1427,0.1423,0.1504,0.1483,0.1489,0.1526,0.1569,0.1572,0.1576,0.1624,0.1633,0.1641,0,0,0,0,0,0,0.1231,0.1252,0.1266,0.1284,0.1309,0.1329,0.1351,0.1371,0.1412,0.1426,0.1442,0.1451,0.1511,0.1509,0.1487,0.1568,0.1536,0.1541,0.1571,0.158,0.1587,0.1592,0.1473,0,0,0,0,0,0.1235,0.125,0.1273,0.1291,0.1304,0.1333,0.1352,0.1374,0.1405,0.1425,0.1454,0.1488,0.1525,0.1546,0.1573,0.1613,0.1602,0.1641,0.1649,0.1655,0.1663,0.1711,0.1724,0.159,0.159,0.159,0,0,0.1239,0.1254,0.1264,0.1292,0.1314,0.1335,0.1348,0.1383,0.1412,0.1425,0.1484,0.1518,0.1543,0.1595,0.162,0.1601,0.1676,0.166,0.1665,0.167,0.1717,0.1729,0.1741,0.1593,0.1592,0.1592,0,0,0.1244,0.1268,0.128,0.1301,0.1338,0.1355,0.1371,0.141,0.1443,0.1497,0.1522,0.1582,0.1625,0.1659,0.1677,0.174,0.1717,0.1749,0.1789,0.1835,0.1846,0.1856,0.1807,0.1813,0.1749,0.1749,0.1749,0,0.1252,0.1265,0.129,0.1306,0.1324,0.1366,0.1383,0.1421,0.1477,0.1508,0.1525,0.1626,0.1657,0.1721,0.1756,0.1759,0.175,0.1751,0.1845,0.1855,0.1864,0.1812,0.1817,0.1752,0.1752,0.1752,0.1751,0,0.1258,0.1278,0.1288,0.132,0.1345,0.1369,0.1414,0.1461,0.1509,0.1547,0.1635,0.1689,0.1746,0.1775,0.1792,0.1876,0.1832,0.1851,0.182,0.1881,0.1821,0.1825,0.1757,0.1756,0.1755,0.1754,0,0,0.1246,0.1284,0.129,0.1303,0.1354,0.137,0.1428,0.1484,0.1528,0.1608,0.1664,0.1766,0.1806,0.1832,0.1866,0.1923,0.1978,0.1925,0.1926,0.187,0.2017,0.1909,0.1902,0.2023,0.2026,0.2028,0.1929,0,0.1244,0.1264,0.1289,0.1319,0.133,0.1383,0.1428,0.1492,0.1557,0.1625,0.1709,0.1781,0.1821,0.1864,0.1931,0.1976,0.2002,0.1998,0.1972,0.1969,0.1864,0.191,0.2035,0.1932,0.1933,0.1933,0.1934,0,0.1238,0.125,0.1271,0.131,0.1322,0.135,0.1424,0.1472,0.1575,0.1634,0.1725,0.1786,0.1883,0.1916,0.2004,0.2002,0.2018,0.2043,0.204,0.193,0.1873,0.1873,0.1942,0.1941,0.194,0.194,0.1939,0,0.1201,0.1237,0.125,0.1264,0.1319,0.1346,0.1384,0.1476,0.1525,0.1643,0.1696,0.1803,0.1867,0.1933,0.2003,0.2009,0.2077,0.2075,0.197,0.1958,0.2058,0.2049,0.2133,0.2134,0.2134,0.2134,0.2134,0,0.1174,0.1189,0.1235,0.1241,0.1269,0.1316,0.1366,0.1432,0.1522,0.1578,0.1698,0.1756,0.1894,0.195,0.1991,0.1984,0.2057,0.1975,0.1949,0.2072,0.2067,0.2056,0.2049,0.213,0.2131,0.2132,0.2133,0,0.1133,0.1163,0.1183,0.1234,0.1251,0.1273,0.1342,0.1383,0.1477,0.1552,0.1593,0.1731,0.1802,0.1887,0.1976,0.1948,0.1964,0.1942,0.2012,0.199,0.1793,0.1789,0.1773,0.1769,0.1766,0.1763,0.1761,0,0.1109,0.1115,0.117,0.1188,0.1212,0.1248,0.128,0.1361,0.1403,0.1524,0.1553,0.1656,0.1739,0.1731,0.1848,0.1858,0.1875,0.1824,0.1868,0.1792,0.1768,0.1769,0.1771,0.1755,0.1754,0.1753,0.1752,0,0.1067,0.1101,0.1122,0.1158,0.1187,0.1215,0.1259,0.1271,0.1364,0.1444,0.1476,0.1518,0.1585,0.1652,0.1682,0.1706,0.1831,0.1788,0.1795,0.1836,0.1769,0.1749,0.1754,0.174,0.1742,0.1743,0.1744,0,0.1048,0.1059,0.11,0.1123,0.1166,0.1183,0.1201,0.1224,0.1258,0.1364,0.1362,0.1471,0.1554,0.1572,0.1605,0.1617,0.1604,0.1556,0.1576,0.159,0.1593,0.1485,0.1346,0,0,0,0,0,0.1022,0.1035,0.1061,0.1093,0.1136,0.1164,0.1199,0.1219,0.1277,0.1259,0.13,0.135,0.1393,0.1454,0.1435,0.1563,0.1637,0.1536,0.1598,0.1673,0.1687,0.1717,0,0,0,0,0,0,0.1008,0.1039,0.1047,0.1067,0.1089,0.1132,0.1154,0.119,0.1171,0.1226,0.1256,0.1285,0.1357,0.1404,0.1422,0.1439,0.1451,0.1589,0.1586,0.1665,0.1678,0.1689,0.1725,0,0,0,0,0]},{"header":{"parameterUnit":"m.s-1","parameterCategory":2,"la1":30.2991,"la2":30.254,"lo1":-89.0895,"lo2":-89.0444,"dy":0.0017,"dx":0.0017,"nx":28,"ny":28,"refTime":"2024-06-18T21:00:00:Z","depth":"4","parameterNumber":3,"parameterNumberName":"V-component_of_CURRENTS"},"data":[0,0,0,0,0,0,0,0,0,0,0,0,0,0,0,0,0,0,0,0,0,0,0,0,0,0,0,0,0,0,0,0,0,0,0,0,0,0,0,0,0,0,0,0,0,0,0,0,0,0,0,0,0,0,0,0,0,0,-0.0019,-0.0019,0,-0.0052,-0.0053,-0.0053,-0.0094,-0.0095,-0.0095,-0.0096,-0.0174,-0.0175,-0.0177,0,0,0,0,0,0,0,0,0,0,0,0,0,-0.0009,-0.0009,-0.0019,-0.0019,-0.002,-0.0052,-0.0053,-0.0053,-0.0094,-0.0095,-0.0095,-0.0096,-0.0173,-0.0175,-0.0177,0,0,0,0,0,0,0,0,0,0,0,0,0,-0.0026,-0.0009,-0.0019,-0.0043,-0.0045,-0.0052,-0.0053,-0.0054,-0.0094,-0.0095,-0.0096,-0.0096,-0.0173,-0.0175,-0.0177,-0.0176,0,0,-0.0185,-0.0186,0,0,0,0,0,0,0,0,-0.0025,-0.0027,-0.0039,-0.0041,-0.0044,-0.0069,-0.0078,-0.0096,-0.0094,-0.0077,-0.0096,-0.0097,-0.0142,-0.0147,-0.0152,-0.0179,-0.0183,-0.0185,-0.0186,-0.0187,-0.0188,0,0,0,0,0,0,0,-0.0024,-0.0026,-0.0033,-0.0039,-0.0042,-0.0059,-0.0062,-0.0082,-0.0106,-0.0078,-0.0081,-0.0083,-0.0144,-0.015,-0.0154,-0.0184,-0.0185,-0.0187,-0.0188,-0.0189,-0.0184,-0.0182,0,0,0,0,0,0,-0.0016,-0.0024,-0.0032,-0.0034,-0.0035,-0.0058,-0.0062,-0.0061,-0.0105,-0.0112,-0.0082,-0.0084,-0.0145,-0.0151,-0.0157,-0.0136,-0.0187,-0.0189,-0.0191,-0.0185,-0.0183,-0.0182,0,0,0,0,0,0,-0.0015,-0.0016,-0.0031,-0.0029,-0.0032,-0.0057,-0.0056,-0.0061,-0.0071,-0.0107,-0.0115,-0.0087,-0.0146,-0.0154,-0.0165,-0.014,-0.019,-0.0193,-0.0187,-0.0185,-0.0183,-0.0108,0,0,0,0,0,0,-0.0015,-0.0016,-0.0015,-0.0029,-0.0032,-0.0028,-0.0055,-0.0061,-0.007,-0.0074,-0.0114,-0.0122,-0.0147,-0.0161,-0.0167,-0.0145,-0.0194,-0.0189,-0.0186,-0.0183,-0.0112,-0.0103,-0.0096,0,0,0,0,0,-0.0014,-0.0012,-0.0015,-0.0016,-0.003,-0.0027,-0.003,-0.0052,-0.0069,-0.0066,-0.0089,-0.0121,-0.0147,-0.0162,-0.017,-0.0147,-0.0191,-0.0187,-0.0184,-0.0116,-0.0105,-0.0096,0,0,0,0,0,0,-0.0017,-0.0016,-0.002,-0.002,-0.0018,-0.0034,-0.0036,-0.0048,-0.0064,-0.0073,-0.0109,-0.0117,-0.0116,-0.0139,-0.0155,-0.0134,-0.017,-0.0168,-0.0117,-0.0107,-0.0098,-0.0091,-0.0196,0,0,0,0,0,-0.0013,-0.0007,-0.0008,-0.0008,-0.0005,-0.0019,-0.0023,-0.0034,-0.0048,-0.0057,-0.0079,-0.0098,-0.0105,-0.0113,-0.0127,-0.0121,-0.015,-0.0108,-0.0099,-0.0092,-0.0089,-0.0111,-0.0105,-0.017,-0.017,-0.017,0,0,-0.0017,-0.0014,-0.0013,-0.0007,-0.0011,0.0007,-0.0024,-0.0025,-0.0008,-0.0062,-0.0052,-0.0075,-0.0097,-0.0086,-0.0087,-0.0105,-0.0085,-0.0088,-0.0081,-0.0082,-0.0107,-0.0101,-0.0096,-0.0168,-0.0168,-0.0169,0,0,-0.0013,-0.0013,-0.0002,0.001,0.0014,0.0016,0.002,0.0014,0.0013,0.002,-0.0007,-0.0013,-0.003,-0.0033,-0.0038,0.0009,-0.0042,0.0006,0.0054,0.0032,0.0037,0.0041,0.0022,0.0023,0.0012,0.0012,0.0013,0,-0.0018,-0.0001,0.0,0.0022,0.0035,0.0027,0.0048,0.0057,0.0049,0.0052,0.0032,0.0021,0.0,0.002,0.0041,0.0027,0.0003,0.0015,0.0042,0.0045,0.0047,0.0027,0.0028,0.0016,0.0016,0.0016,0.0015,0,0.0003,0.0019,0.0028,0.0061,0.0079,0.0092,0.0114,0.0128,0.0123,0.0123,0.0132,0.0109,0.0097,0.0103,0.0085,0.0105,0.0079,0.0052,0.0013,0.0058,0.0034,0.0034,0.0022,0.0021,0.002,0.0019,0,0,-0.0016,0.0032,0.0035,0.0057,0.0099,0.0112,0.016,0.0189,0.0204,0.0205,0.0217,0.0224,0.0196,0.019,0.0169,0.0162,0.0165,0.012,0.0117,0.0097,0.0116,0.008,0.0075,0.0136,0.0136,0.0136,0.0095,0,-0.0003,0.0038,0.0067,0.0114,0.0139,0.0168,0.0211,0.024,0.025,0.0262,0.0254,0.025,0.0236,0.022,0.0218,0.017,0.0165,0.0178,0.008,0.0077,0.0035,0.0074,0.0136,0.0094,0.0094,0.0093,0.0093,0,0.0012,0.0038,0.008,0.0139,0.0153,0.0184,0.0238,0.0274,0.0305,0.0309,0.0313,0.0293,0.0296,0.0263,0.0224,0.0229,0.0184,0.0151,0.0147,0.0085,0.004,0.0037,0.0091,0.0091,0.0091,0.0092,0.0092,0,-0.0006,0.0051,0.008,0.0102,0.0168,0.0192,0.0227,0.0274,0.0302,0.0325,0.0328,0.0328,0.0306,0.027,0.0207,0.0209,0.0145,0.0133,0.0066,0.0062,0.0071,0.0067,0.0104,0.0104,0.0104,0.0104,0.0104,0,0.0002,0.0027,0.0067,0.0085,0.0121,0.0175,0.0213,0.0252,0.0294,0.0319,0.0336,0.0341,0.0302,0.0261,0.0213,0.0134,0.0146,0.0081,0.0052,0.0105,0.0106,0.007,0.0067,0.0102,0.0103,0.0103,0.0103,0,-0.0012,0.0013,0.0047,0.0099,0.0113,0.0137,0.0201,0.0227,0.0274,0.0304,0.031,0.0334,0.0287,0.0239,0.0164,0.0127,0.0062,0.0027,0.0091,0.0064,-0.0003,-0.0001,-0.0034,-0.0036,-0.0037,-0.0038,-0.0039,0,-0.0011,0.0,0.004,0.0051,0.0072,0.011,0.0137,0.0202,0.0229,0.0298,0.0302,0.0285,0.0283,0.0171,0.0119,0.0026,0.0007,-0.002,0.0003,0.001,-0.0016,-0.0012,-0.001,-0.0041,-0.0042,-0.0042,-0.0042,0,-0.0011,-0.0007,0.0016,0.003,0.005,0.0082,0.0121,0.0138,0.0213,0.0254,0.0291,0.0272,0.0215,0.0157,0.007,0.0008,0.0008,-0.0033,-0.003,-0.0009,0.0001,-0.0022,-0.0018,-0.0047,-0.0046,-0.0046,-0.0045,0,-0.0018,-0.0012,0.0003,0.0019,0.0036,0.005,0.0077,0.0117,0.0156,0.0237,0.0241,0.0233,0.0235,0.0145,0.0073,0.0001,-0.0008,-0.0017,-0.0015,-0.001,0.0007,0.0024,-0.0035,0,0,0,0,0,-0.002,-0.0017,-0.0005,0.0009,0.002,0.0028,0.007,0.0099,0.0159,0.0179,0.0219,0.018,0.0119,0.0108,0.0026,0.0025,-0.0045,-0.0074,-0.0061,-0.0072,-0.0067,-0.0053,0,0,0,0,0,0,-0.002,-0.0014,-0.0009,-0.0007,-0.0007,0.0008,0.0028,0.0068,0.0086,0.0147,0.0113,0.0153,0.0079,0.0153,0.0021,0.0005,0.0002,-0.0089,-0.0091,-0.0075,-0.007,-0.0066,-0.005,0,0,0,0,0]}]]